Terminal Aerodrome Forecast
Issued by NWS Aberdeen, SD

Home | Current Version | Previous Version | Text Only | Print | Product List | Glossary On
Versions: 1 2 3 4 5 6 7 8 9 10 11 12 13 14 15 16 17 18 19 20 21 22 23 24 25 26 27 28 29 30 31 32 33 34 35 36 37 38 39 40 41 42 43 44 45 46 47 48 49 50
000
FTUS43 KABR 270200 AAA
TAFABR
TAF AMD
KABR 270247Z 2703/2724 36006KT P6SM SCT250
     FM270600 VRB03KT 5SM BR SKC
     FM270800 VRB03KT 1SM BR SKC
     FM271000 18005KT 1/2SM FZFG OVC003
     FM271600 17010KT P6SM SKC=

USA.gov is the U.S. government's official web portal to all federal, state and local government web resources and services.